McClellan AFB, CA

12:56 AM PST on December 04, 2016 (GMT -0800)
McClellan

Weather History for KMCC - December, 2013

Change the Weather History Date:

Friday, December 6, 2013

  Actual Average (KMHR) Record (KMHR)
Temperature  
Mean Temperature 36 °F -  
Max Temperature 46 °F 53 °F 66 °F (2014)
Min Temperature 26 °F 39 °F 24 °F (2011)
Degree Days  
Heating Degree Days 29    
Moisture  
Dew Point 26 °F    
Average Humidity 64    
Maximum Humidity 87    
Minimum Humidity 46    
Precipitation  
Precipitation 0.00 in - - ()
Sea Level Pressure  
Sea Level Pressure 30.13 in    
Wind  
Wind Speed 8 mph (SE)    
Max Wind Speed 30 mph    
Max Gust Speed 39 mph    
Visibility 9 miles    
Events Rain    
Averages and records for this station are not official NWS values.
T = Trace of Precipitation, MM = Missing Value Source: NWS Daily Summary

Daily Weather History Graph

Daily Weather History Graph

Search for Another Location

Airport or City:

Trip Planner

Search our weather history database for the weather conditions in past years. The results will help you decide how hot, cold, wet, or windy it might be!

Date:

Astronomy

Dec. 06, 2013 Rise Set
Actual Time 7:09 AM PST 4:44 PM PST
Civil Twilight 6:39 AM PST 5:13 PM PST
Nautical Twilight 6:06 AM PST 5:46 PM PST
Astronomical Twilight 5:34 AM PST 6:18 PM PST
Moon 10:20 AM PST (12/6) 9:20 PM PST (12/6)
Length of Visible Light 10h 33m
Length of Day
9h 34m
Waxing Crescent, 20% of the Moon is Illuminated
Dec 6
Waxing Crescent
Dec 9
First Quarter
Dec 17
Full
Dec 25
Last Quarter
Jan 1
New

Hourly Weather History & Observations

Time (PST) Temp. Windchill Dew Point Humidity Pressure Visibility Wind Dir Wind Speed Gust Speed Precip Events Conditions
12:10 AM 32.0 °F 26.4 °F 19.4 °F 60% 30.17 in 10.0 mi SE 5.8 mph - N/A   Clear
12:30 AM 32.0 °F 25.6 °F 17.6 °F 55% 30.17 in 10.0 mi SE 6.9 mph - N/A   Clear
12:50 AM 28.4 °F 21.2 °F 17.6 °F 64% 30.17 in 10.0 mi SE 6.9 mph - N/A   Clear
1:10 AM 30.2 °F 24.3 °F 19.4 °F 64% 30.17 in 10.0 mi SE 5.8 mph - N/A   Clear
1:30 AM 30.2 °F 24.3 °F 19.4 °F 64% 30.17 in 10.0 mi SE 5.8 mph - N/A   Clear
1:50 AM 32.0 °F 28.7 °F 19.4 °F 60% 30.18 in 10.0 mi ESE 3.5 mph - N/A   Clear
2:10 AM 32.0 °F 27.5 °F 19.4 °F 60% 30.18 in 10.0 mi SE 4.6 mph - N/A   Clear
2:30 AM 30.2 °F 25.4 °F 19.4 °F 64% 30.18 in 10.0 mi SE 4.6 mph - N/A   Clear
2:50 AM 30.2 °F 24.3 °F 19.4 °F 64% 30.18 in 10.0 mi SE 5.8 mph - N/A   Clear
3:10 AM 28.4 °F 24.6 °F 19.4 °F 69% 30.19 in 10.0 mi SE 3.5 mph - N/A   Clear
3:30 AM 30.2 °F 24.3 °F 19.4 °F 64% 30.19 in 10.0 mi ESE 5.8 mph - N/A   Clear
3:50 AM 30.2 °F 22.6 °F 19.4 °F 64% 30.18 in 10.0 mi East 8.1 mph - N/A   Clear
4:10 AM 32.0 °F 24.8 °F 21.2 °F 64% 30.17 in 10.0 mi East 8.1 mph - N/A   Clear
4:30 AM 32.0 °F 26.4 °F 21.2 °F 64% 30.17 in 10.0 mi East 5.8 mph - N/A   Clear
4:50 AM 30.2 °F 24.3 °F 21.2 °F 69% 30.17 in 10.0 mi ESE 5.8 mph - N/A   Clear
5:10 AM 30.2 °F - 21.2 °F 69% 30.17 in 10.0 mi Calm Calm - N/A   Clear
5:30 AM 28.4 °F - 21.2 °F 74% 30.18 in 10.0 mi Calm Calm - N/A   Clear
5:50 AM 28.4 °F - 21.2 °F 74% 30.18 in 10.0 mi Calm Calm - N/A   Clear
6:10 AM 30.2 °F 26.7 °F 19.4 °F 64% 30.18 in 10.0 mi ESE 3.5 mph - N/A   Clear
6:30 AM 30.2 °F 26.7 °F 21.2 °F 69% 30.18 in 10.0 mi SE 3.5 mph - N/A   Clear
6:50 AM 32.0 °F 28.7 °F 23.0 °F 69% 30.19 in 10.0 mi ESE 3.5 mph - N/A   Clear
7:10 AM 26.6 °F 22.6 °F 19.4 °F 74% 30.19 in 10.0 mi WNW 3.5 mph - N/A   Clear
7:30 AM 26.6 °F 22.6 °F 19.4 °F 74% 30.19 in 9.0 mi NW 3.5 mph - N/A   Clear
7:50 AM 26.6 °F 19.1 °F 21.2 °F 80% 30.21 in 9.0 mi WNW 6.9 mph - N/A   Clear
8:10 AM 28.4 °F 23.3 °F 23.0 °F 80% 30.22 in 9.0 mi NW 4.6 mph - N/A   Clear
8:30 AM 32.0 °F 28.7 °F 23.0 °F 69% 30.23 in 10.0 mi NNW 3.5 mph - N/A   Clear
8:50 AM 32.0 °F 28.7 °F 23.0 °F 69% 30.23 in 10.0 mi NW 3.5 mph - N/A   Clear
9:10 AM 33.8 °F - 23.0 °F 65% 30.24 in 10.0 mi Calm Calm - N/A   Clear
9:30 AM 35.6 °F - 23.0 °F 60% 30.24 in 10.0 mi Calm Calm - N/A   Clear
9:50 AM 37.4 °F - 24.8 °F 60% 30.23 in 10.0 mi Calm Calm - N/A   Clear
10:10 AM 39.2 °F 35.9 °F 24.8 °F 56% 30.23 in 10.0 mi ESE 4.6 mph - N/A   Partly Cloudy
10:30 AM 41.0 °F 36.4 °F 24.8 °F 53% 30.22 in 10.0 mi SSE 6.9 mph - N/A   Clear
10:50 AM 42.8 °F 38.0 °F 24.8 °F 49% 30.22 in 10.0 mi SE 8.1 mph - N/A   Clear
11:10 AM 44.6 °F 40.2 °F 24.8 °F 46% 30.21 in 10.0 mi South 8.1 mph - N/A   Clear
11:30 AM 42.8 °F 39.3 °F 24.8 °F 49% 30.21 in 10.0 mi SSW 5.8 mph - N/A   Mostly Cloudy
11:50 AM 44.6 °F 41.4 °F 24.8 °F 46% 30.20 in 10.0 mi South 5.8 mph - N/A   Mostly Cloudy
12:10 PM 44.6 °F 40.7 °F 26.6 °F 49% 30.18 in 10.0 mi South 6.9 mph - N/A   Scattered Clouds
12:30 PM 44.6 °F 40.7 °F 26.6 °F 49% 30.18 in 10.0 mi South 6.9 mph - N/A   Scattered Clouds
12:50 PM 44.6 °F 40.2 °F 26.6 °F 49% 30.17 in 10.0 mi SSW 8.1 mph - N/A   Partly Cloudy
1:10 PM 44.6 °F 40.7 °F 26.6 °F 49% 30.16 in 10.0 mi South 6.9 mph - N/A   Mostly Cloudy
1:30 PM 44.6 °F 40.7 °F 26.6 °F 49% 30.15 in 10.0 mi South 6.9 mph - N/A   Mostly Cloudy
1:50 PM 44.6 °F 40.7 °F 26.6 °F 49% 30.14 in 10.0 mi SSE 6.9 mph - N/A   Overcast
2:10 PM 44.6 °F 40.7 °F 26.6 °F 49% 30.13 in 10.0 mi SSE 6.9 mph - N/A   Mostly Cloudy
2:30 PM 44.6 °F 39.7 °F 26.6 °F 49% 30.12 in 10.0 mi South 9.2 mph - N/A   Scattered Clouds
2:50 PM 46.4 °F 41.9 °F 26.6 °F 46% 30.12 in 10.0 mi South 9.2 mph - N/A   Clear
3:10 PM 46.4 °F 41.9 °F 26.6 °F 46% 30.12 in 10.0 mi South 9.2 mph - N/A   Partly Cloudy
3:30 PM 46.4 °F 41.5 °F 26.6 °F 46% 30.11 in 10.0 mi SE 10.4 mph - N/A   Scattered Clouds
3:50 PM 46.4 °F 42.9 °F 26.6 °F 46% 30.12 in 10.0 mi SSE 6.9 mph - N/A   Scattered Clouds
4:10 PM 46.4 °F 41.1 °F 26.6 °F 46% 30.11 in 10.0 mi SSE 11.5 mph - N/A   Mostly Cloudy
4:30 PM 46.4 °F 41.1 °F 28.4 °F 50% 30.11 in 10.0 mi SE 11.5 mph 20.7 mph N/A   Mostly Cloudy
4:50 PM 44.6 °F 40.2 °F 30.2 °F 57% 30.10 in 8.0 mi South 8.1 mph 18.4 mph N/A   Overcast
5:10 PM 44.6 °F 38.4 °F 32.0 °F 61% 30.09 in 9.0 mi SSE 12.7 mph - N/A Rain Light Rain
5:30 PM 44.6 °F 38.8 °F 32.0 °F 61% 30.09 in 10.0 mi SE 11.5 mph 18.4 mph N/A   Overcast
5:50 PM 44.6 °F 38.4 °F 32.0 °F 61% 30.07 in 10.0 mi SE 12.7 mph 19.6 mph N/A   Overcast
6:10 PM 42.8 °F 35.4 °F 32.0 °F 66% 30.06 in 10.0 mi SE 15.0 mph 20.7 mph N/A Rain Light Rain
6:30 PM 41.0 °F 32.8 °F 32.0 °F 70% 30.06 in 8.0 mi SE 16.1 mph 20.7 mph N/A Rain Light Rain
6:50 PM 41.0 °F 32.8 °F 33.8 °F 76% 30.05 in 10.0 mi ESE 16.1 mph 21.9 mph N/A   Overcast
7:10 PM 41.0 °F 33.5 °F 33.8 °F 76% 30.04 in 7.0 mi ESE 13.8 mph - N/A Rain Light Rain
7:30 PM 41.0 °F 33.9 °F 33.8 °F 76% 30.04 in 10.0 mi SE 12.7 mph 21.9 mph N/A Rain Light Rain
7:50 PM 41.0 °F 31.9 °F 35.6 °F 81% 30.03 in 5.0 mi SSE 19.6 mph 25.3 mph N/A Rain Light Rain
8:10 PM 41.0 °F 32.5 °F 35.6 °F 81% 30.02 in 5.0 mi SSE 17.3 mph 36.8 mph N/A Rain Light Rain
8:30 PM 41.0 °F 31.6 °F 33.8 °F 76% 30.01 in 8.0 mi SSE 20.7 mph 26.5 mph N/A   Overcast
8:50 PM 41.0 °F 29.8 °F 33.8 °F 76% 29.99 in 5.0 mi SSE 29.9 mph 39.1 mph N/A Rain Light Rain
9:10 PM 41.0 °F 30.7 °F 33.8 °F 76% 29.99 in 5.0 mi SSE 25.3 mph 34.5 mph N/A Rain Light Rain
9:30 PM 41.0 °F 33.1 °F 35.6 °F 81% 29.99 in 4.0 mi SE 15.0 mph 21.9 mph N/A Rain Light Rain
9:50 PM 41.0 °F 31.1 °F 33.8 °F 76% 29.98 in 2.5 mi SE 23.0 mph 33.4 mph N/A Rain Light Rain
10:10 PM 39.2 °F 29.3 °F 35.6 °F 87% 29.97 in 2.0 mi SE 20.7 mph 32.2 mph N/A   Overcast
10:30 PM 39.2 °F 29.3 °F 35.6 °F 87% 29.96 in 5.0 mi SE 20.7 mph 29.9 mph N/A   Overcast
10:50 PM 39.2 °F 28.3 °F 35.6 °F 87% 29.94 in 2.0 mi SE 25.3 mph 35.7 mph N/A   Overcast
11:10 PM 39.2 °F 28.3 °F 35.6 °F 87% 29.95 in 1.8 mi SSE 25.3 mph 35.7 mph N/A   Overcast
11:30 PM 39.2 °F 28.7 °F 35.6 °F 87% 29.94 in 1.8 mi SSE 23.0 mph 34.5 mph N/A   Overcast
11:50 PM 39.2 °F 29.0 °F 35.6 °F 87% 29.93 in 3.0 mi SE 21.9 mph 29.9 mph N/A   Mostly Cloudy